Home   Weather   Inglewood   Past weeks
Flag for USA

Past Weather in Inglewood, California, USA — Yesterday and Last 2 Weeks

Now
56 °F

Sunny.


Feels Like: 56 °F
Forecast: 67 / 53 °F
Wind: No wind

Location: Hawthorne Municipal Airport

Current Time: Mar 24, 2019 at 8:49:40 am

Latest Report: Mar 24, 2019 at 7:53 am


Visibility: 7 mi

Pressure: 30.19 "Hg

Humidity: 81%

Dew Point: 50 °F

Location of InglewoodLocation

Past Weather in Inglewood — Graph

°F

Inglewood Temperature Yesterday

Maximum temperature yesterday: 65 °F (at 2:53 pm)
Minimum temperature yesterday: 57 °F (at 12:53 am)
Average temperature yesterday: 60 °F

High & Low Weather Summary for the Past Weeks

 TemperatureHumidityPressure
High84 °F (Mar 17, 12:53 pm)93% (Mar 19, 7:24 am)30.22 "Hg (Mar 19, 7:24 am)
Low50 °F (Mar 9, 5:53 am)11% (Mar 15, 12:53 pm)29.73 "Hg (Mar 12, 2:53 pm)
Average60 °F57%30.02 "Hg
* Reported Mar 9 5:53 am — Mar 24 6:53 am, Inglewood. Weather by CustomWeather, © 2019

Note: Actual official high and low records may vary slightly from our data, if they occured in-between our weather recording intervals... More about our weather records

Advertising

Inglewood Weather History for the Previous 24 Hours

Scroll right to see more
 ConditionsComfort  
Time TempWeatherWind HumidityBarometerVisibility
6:53 am
Sun, Mar 24
55 °FSunny.No wind83%30.16 "Hg8 mi
6:27 am55 °FPassing clouds.No wind83%30.15 "Hg9 mi
5:53 am54 °FPassing clouds.No wind83%30.14 "Hg10 mi
4:53 am55 °FClear.No wind83%30.13 "Hg10 mi
3:53 am56 °FClear.No wind84%30.14 "Hg10 mi
3:03 am56 °FPassing clouds.No wind84%30.15 "Hg10 mi
1:53 am57 °FOvercast.No wind81%30.15 "Hg10 mi
1:40 am57 °FPassing clouds.No wind81%30.15 "Hg10 mi
12:53 am58 °FClear.3 mph78%30.14 "Hg10 mi
11:53 pm
Sat, Mar 23
58 °FClear.3 mph81%30.14 "Hg10 mi
10:53 pm59 °FClear.3 mph78%30.14 "Hg10 mi
9:53 pm59 °FPassing clouds.8 mph78%30.14 "Hg10 mi
8:53 pm60 °FClear.3 mph75%30.14 "Hg10 mi
8:27 pm60 °FPassing clouds.8 mph78%30.14 "Hg10 mi
7:53 pm60 °FOvercast.9 mph78%30.14 "Hg10 mi
6:53 pm61 °FPartly sunny.10 mph72%30.13 "Hg10 mi
5:53 pm63 °FPartly sunny.10 mph68%30.12 "Hg10 mi
4:53 pm65 °FSunny.9 mph59%30.12 "Hg10 mi
3:53 pm65 °FSunny.14 mph59%30.13 "Hg10 mi
2:53 pm65 °FSunny.10 mph59%30.14 "Hg10 mi
1:53 pm64 °FPassing clouds.8 mph58%30.15 "Hg10 mi
12:53 pm63 °FSunny.9 mph58%30.17 "Hg10 mi
11:53 am63 °FSunny.6 mph58%30.17 "Hg10 mi
10:53 am62 °FPartly sunny.3 mph58%30.18 "Hg10 mi
9:53 am59 °FOvercast.3 mph67%30.18 "Hg10 mi
8:53 am58 °FOvercast.5 mph70%30.17 "Hg10 mi
Weather by CustomWeather, © 2019

See weather overview